Regional Weather Roundup
Issued by NWS

Home | Current Version | Previous Version | Graphics & Text | Print | Product List | Glossary Off
Versions: 1 2 3 4 5 6 7 8 9 10 11 12 13 14 15 16 17 18 19 20 21 22 23 24 25 26 27

000
ASUS45 KCYS 311510
RWRWY

WYOMING REGIONAL WEATHER ROUNDUP
NATIONAL WEATHER SERVICE CHEYENNE WY
900 AM MDT FRI OCT 31 2014

NOTE:  "FAIR" INDICATES FEW OR NO CLOUDS BELOW 12,000 FEET
WITH NO SIGNIFICANT WEATHER AND/OR OBSTRUCTIONS TO VISIBILITY.

WYZ001-311600-
YELLOWSTONE NATIONAL PARK

CITY           SKY/WX    TMP DP  RH WIND       PRES   REMARKS
LK YELLOWSTONE   N/A     30  29  96 CALM      30.16
W YELLOWSTONE  NOT AVBL

$$
WYZ002>013-054>058-071-098>099-311600-
NORTHERN WYOMING

CITY           SKY/WX    TMP DP  RH WIND       PRES   REMARKS
JACKSON        CLEAR     28  27  93 CALM      30.15R
CODY           CLOUDY    37  28  70 CALM      30.03
GREYBULL       PTSUNNY   34  22  61 N3        30.04S
WORLAND        CLOUDY    34  24  67 W3        30.04S
SHERIDAN       CLOUDY    35  27  72 CALM      30.03F
BUFFALO        CLOUDY    37  26  64 S24       30.06S WCI  26
GILLETTE       CLOUDY    34  28  79 S28G35    30.13F WCI  21
HULETT         FAIR      46  32  57 SW5       30.19
NEWCASTLE      FAIR      37  30  75 SE18G26   30.29  WCI  27

$$
WYZ014>020-022>026-101>103-311600-
CENTRAL WYOMING

CITY           SKY/WX    TMP DP  RH WIND       PRES   REMARKS
BIG PINEY      CLOUDY    31  24  75 CALM      30.19S
PINEDALE       PTSUNNY   30  27  86 NW3       30.19
DUBOIS         FAIR      28  25  86 NW3       30.15S
LANDER         PTSUNNY   39  28  64 CALM      30.12S
RIVERTON       CLOUDY    38  25  59 NW5       30.14S WCI  34
CASPER         PTSUNNY   31  26  82 CALM      30.17S
DOUGLAS        CLOUDY    36  29  75 SE25      30.22S WCI  24

$$
WYZ021-027>030-104>119-311600-
SOUTHERN WYOMING

CITY           SKY/WX    TMP DP  RH WIND       PRES   REMARKS
EVANSTON       MOSUNNY   41  21  44 E9        30.15S
KEMMERER       PTSUNNY   34  28  80 N3        30.18S
FORT BRIDGER   FAIR      38  28  66 W3        30.20S
ROCK SPRINGS   PTSUNNY   37  25  61 CALM      30.18R
RAWLINS        MOSUNNY   34  22  61 CALM      30.23R
SARATOGA       FAIR      43  27  52 SE17      30.24S
LARAMIE        SUNNY     38  25  59 S17       30.25F WCI  28
CHEYENNE       SUNNY     32  27  81 S10       30.32S WCI  24
TORRINGTON     SUNNY     32  29  88 SE16      30.33F WCI  21
PINE BLUFFS    FAIR      34  30  86 S12G18    30.35S WCI  25

$$



USA.gov is the U.S. government's official web portal to all federal, state and local government web resources and services.